This is the latest recevied weather packets stored in our database for station/object IT9CNT. If no packets are shown the sender has not sent any weather packets the latest 10 day(s).
| Time | Temp. | Humidity | Pressure | Rain* | Wind** | Luminosity | Snow |
|---|---|---|---|---|---|---|---|
| 1787977503 | 28.33° C | 52% | 1013.4 hPa | 0 mm | - | - | - |
| 1787977443 | 28.33° C | 52% | 1013.5 hPa | 0 mm | - | - | - |
| 1787977383 | 28.33° C | 52% | 1013.5 hPa | 0 mm | - | - | - |
| 1787977323 | 28.33° C | 52% | 1013.5 hPa | 0 mm | - | - | - |
| 1787977263 | 28.33° C | 52% | 1013.4 hPa | 0 mm | - | - | - |
| 1787977203 | 28.33° C | 52% | 1013.3 hPa | 0 mm | - | - | - |
| 1787977143 | 30° C | 48% | 1013.4 hPa | 0 mm | - | - | - |
| 1787977083 | 30° C | 48% | 1013.4 hPa | 0 mm | - | - | - |
| 1787977023 | 30° C | 48% | 1013.3 hPa | 0 mm | - | - | - |
| 1787976963 | 30° C | 48% | 1013.5 hPa | 0 mm | - | - | - |
| 1787976904 | 30° C | 48% | 1013.3 hPa | 0 mm | - | - | - |
| 1787976843 | 30° C | 48% | 1013.5 hPa | 0 mm | - | - | - |
| 1787976783 | 30.56° C | 46% | 1013.5 hPa | 0 mm | - | - | - |
| 1787976723 | 30.56° C | 45% | 1013.3 hPa | 0 mm | - | - | - |
| 1787976663 | 30.56° C | 45% | 1013.4 hPa | 0 mm | - | - | - |
| 1787976603 | 30° C | 47% | 1013.3 hPa | 0 mm | - | - | - |
| 1787976543 | 30° C | 47% | 1013.3 hPa | 0 mm | - | - | - |
| 1787976483 | 30° C | 47% | 1013.1 hPa | 0 mm | - | - | - |
| 1787976423 | 28.33° C | 54% | 1013.4 hPa | 0 mm | - | - | - |
| 1787976363 | 28.33° C | 54% | 1013.4 hPa | 0 mm | - | - | - |
| 1787976303 | 28.33° C | 54% | 1013.2 hPa | 0 mm | - | - | - |
| 1787976243 | 28.33° C | 54% | 1013.3 hPa | 0 mm | - | - | - |
| 1787976183 | 28.33° C | 54% | 1013.2 hPa | 0 mm | - | - | - |
| 1787976123 | 28.33° C | 54% | 1013.4 hPa | 0 mm | - | - | - |
| 1787976063 | 28.33° C | 54% | 1013.2 hPa | 0 mm | - | - | - |
* Rain latest hour (hover to see other rain measurements)
** Current wind speed in m/s (hover to see current wind gust speed)